Location: Shepherdstown, WV
(39.4326°N, 77.8042°W)
Time: 03:42:34
(UTC-04:00)

Vanguard 3 - Pass Details

Date: 03 August 2021
Orbit: 510 x 3260 km, 33.3° (Epoch: 21 September)

Event Time Altitude Azimuth Distance (km) Brightness Sun altitude
Rises 17:47:07 0° 232° (SW) 4,825 11.9 28.1°
Reaches altitude 10° 17:49:53 10° 228° (SW) 4,147 11.6 27.6°
Maximum altitude 18:01:36 55° 154° (SSE) 2,948 10.1 25.3°
Drops below altitude 10° 18:19:35 10° 85° (E) 6,146 11.1 21.9°
Sets 18:24:44 0° 82° (E) 7,229 11.4 20.9°
